AKDT,Max TemperatureF,Mean TemperatureF,Min TemperatureF,Max Dew PointF,MeanDew PointF,Min DewpointF,Max Humidity, Mean Humidity, Min Humidity, Max Sea Level PressureIn, Mean Sea Level PressureIn, Min Sea Level PressureIn, Max VisibilityMiles, Mean VisibilityMiles, Min VisibilityMiles, Max Wind SpeedMPH, Mean Wind SpeedMPH, Max Gust SpeedMPH,PrecipitationIn, CloudCover, Events, WindDirDegrees
2012-10-1,39,32,26,30,27,25,93,78,49,30.25,30.15,30.03,10,10,5,5,0,,0.00,5,,185
2012-10-2,39,31,23,28,25,21,93,80,55,30.26,30.19,30.12,10,10,10,6,3,,0.00,4,,56
2012-10-3,48,37,26,30,28,25,93,71,30,30.18,30.12,30.02,10,10,10,6,1,,0.00,3,,48
2012-10-4,41,36,30,34,28,25,93,77,61,30.02,29.94,29.90,10,10,8,8,4,,0.00,4,,51
2012-10-5,42,36,30,34,30,28,93,78,54,30.10,30.02,29.97,10,10,9,12,1,,0.00,6,,245
2012-10-6,46,40,33,37,34,30,100,83,57,30.16,30.04,29.96,10,10,9,13,2,20,0.00,6,,252
2012-10-7,44,38,33,36,32,30,93,78,57,30.21,30.18,30.14,10,10,10,9,4,,0.00,4,,237
2012-10-8,39,31,21,30,27,19,93,79,55,30.30,30.17,30.10,10,10,5,6,2,,0.00,4,,294
2012-10-9,35,28,21,25,21,16,93,70,48,30.50,30.44,30.31,10,10,10,13,5,,0.00,4,,38
2012-10-10,32,24,15,18,13,10,86,69,44,30.49,30.42,30.33,10,10,10,9,6,,0.00,0,,39
2012-10-11,24,15,6,18,11,3,100,86,69,30.32,30.06,29.79,10,10,3,5,1,,0.00,2,,52
2012-10-12,24,20,12,18,16,10,93,87,69,29.78,29.67,29.58,10,7,2,10,2,,0.00,6,,36
2012-10-13,27,20,12,16,12,9,100,72,35,29.59,29.56,29.50,10,10,10,9,6,,0.00,2,,58
2012-10-14,21,18,15,19,13,9,93,76,54,29.50,29.34,29.26,10,8,1,9,6,,0.00,7,,39
2012-10-15,27,23,19,21,18,16,93,80,56,29.28,29.22,29.17,10,8,2,13,6,18,0.00,8,Snow,41
2012-10-16,24,16,8,21,17,3,100,90,47,29.58,29.40,29.20,10,3,0,6,2,,0.00,7,Fog-Snow,236
2012-10-17,23,18,12,19,18,16,100,89,71,29.85,29.77,29.59,10,10,5,5,1,,0.00,8,,175
2012-10-18,24,18,12,21,18,10,93,89,79,30.08,29.96,29.85,10,7,2,6,0,,0.00,7,Snow,335
2012-10-19,24,17,10,18,14,7,93,82,56,30.31,30.20,30.09,10,10,10,8,4,,0.00,4,,24
2012-10-20,24,11,-2,16,11,-9,100,88,64,30.59,30.46,30.31,10,9,0,4,0,,0.00,5,,210
2012-10-21,15,14,12,12,11,0,100,90,78,30.61,30.57,30.48,10,6,0,7,1,,0.00,8,Fog,75
2012-10-22,12,11,10,10,9,9,92,92,92,30.51,30.45,30.43,10,9,1,6,1,,0.00,4,,54
2012-10-23,,,,,,,,,,30.73,30.62,30.51,10,8,0,0,0,,0.00,6,,-1
2012-10-24,,,,,,,,,,30.82,30.79,30.73,10,7,0,0,0,,0.00,3,,-1
2012-10-25,,,,,,,,,,30.77,30.65,30.50,10,8,0,0,0,,0.00,3,,-1
2012-10-26,10,8,6,7,6,3,92,90,85,30.50,30.44,30.37,10,9,4,4,0,,0.00,8,,50
2012-10-27,12,10,8,10,8,7,92,90,80,30.36,30.23,30.08,10,6,0,0,0,,0.00,8,,-1
2012-10-28,12,11,10,10,9,7,92,89,81,30.13,30.09,30.01,10,9,4,5,0,,0.00,8,,292
2012-10-29,10,6,3,9,6,1,92,88,76,30.00,29.93,29.90,10,9,2,4,0,,0.00,7,Snow,350
2012-10-30,8,0,-7,7,0,-15,100,87,71,30.10,30.07,30.00,10,10,3,4,0,,0.00,6,,280
2012-10-31,19,4,-11,16,3,-18,100,84,68,30.13,30.09,30.07,10,10,8,16,3,21,0.00,4,,39